Other Public Products
Issued by NWS Charleston, SC

Current Version | Previous Version | Graphics & Text | Print | Product List | Glossary On
Versions: 1 2 3 4 5 6 7 8 9 10 11 12 13 14 15 16 17 18 19 20 21 22 23 24 25 26 27 28 29 30 31 32 33 34 35 36 37 38 39 40 41 42 43 44 45 46 47 48 49 50
000
FPUS82 KCHS 190612
OPUCHS

TEST...KCHS/KSAV Gateway Observations...TEST
National Weather Service Charleston SC
200 AM EDT THU APR 19 2018

NOTE: "fair" indicates few or no clouds below 12,000 feet with no
significant weather and/or obstructions to visibility.

SCZ050-WAZ558-NCZ071-TXZ119-213-PAZ071-DCZ001-FLZ074-172-MI076-
NYZ176-178-MAZ016-IL014-TNZ027-NJZ106-GAZ044-MD014-190700-

...Gateway Observations for Charleston International...

CITY           SKY/WX    TMP DP  RH WIND       PRES   REMARKS
Chas Airport   FAIR      69  48  47 SW12      29.90F
6HR MIN TEMP:  63; 6HR MAX TEMP:  70;

Seattle        CLOUDY    49  42  77 N6        30.19S
6HR MIN TEMP:  49; 6HR MAX TEMP:  59;

Charlotte      FAIR      72  46  39 SW16G23   29.76F
6HR MIN TEMP:  72; 6HR MAX TEMP:  77;

Dallas DFW     CLEAR     54  38  54 N12       30.19R
6HR MIN TEMP:  54; 6HR MAX TEMP:  74;

Dallas Love    NOT AVBL
Philladelphia  CLOUDY    49  38  65 E8        29.70F
6HR MIN TEMP:  48; 6HR MAX TEMP:  54;

Wash National  FAIR      50  41  71 NE5       29.64F
6HR MIN TEMP:  50; 6HR MAX TEMP:  58;

Baltimore      FAIR      48  43  82 E5        29.63F
6HR MIN TEMP:  48; 6HR MAX TEMP:  54;

Miami          FAIR      70  63  78 E6        30.09F
6HR MIN TEMP:  70; 6HR MAX TEMP:  75;

Detroit        CLOUDY    35  25  66 N13       29.87S WCI  26
6HR MIN TEMP:  35; 6HR MAX TEMP:  38; 6HR PCP: TRACE;

Newark         LGT RAIN  47  34  60 NE7       29.74F
6HR MIN TEMP:  47; 6HR MAX TEMP:  52; 6HR PCP: TRACE;

Laguardia      CLOUDY    47  32  56 NE9       29.74F
6HR MIN TEMP:  47; 6HR MAX TEMP:  53; 6HR PCP: TRACE;

J F K          LGT RAIN  47  39  74 E5        29.76R
6HR MIN TEMP:  45; 6HR MAX TEMP:  49; 6HR PCP: TRACE;

Boston Logan   PTCLDY    43  29  57 W9        29.76S
6HR MIN TEMP:  43; 6HR MAX TEMP:  48;

Ft. Lauderdale FAIR      72  64  76 SE7       30.08F
6HR MIN TEMP:  72; 6HR MAX TEMP:  74;

Chicago O`Hare LGT SNOW  32  32 100 N10       29.98R FOG     WCI  24
6HR MIN TEMP:  32; 6HR MAX TEMP:  33;

Chicago Midway LGT SNOW  33  33 100 NW10      29.98R FOG     WCI  25
6HR MIN TEMP:  33; 6HR MAX TEMP:  35; 6HR PCP:  0.07;

Houston Bush   MOCLDY    70  61  73 N6        30.10R
6HR MIN TEMP:  69; 6HR MAX TEMP:  77;

Houston Hobby  MOCLDY    71  69  93 SW3       30.09R
6HR MIN TEMP:  71; 6HR MAX TEMP:  77;

Nashville      FAIR      52  39  61 N10       30.00R
6HR MIN TEMP:  52; 6HR MAX TEMP:  72; 6HR PCP:  0.10;

Atlanta        FAIR      67  55  65 SW9       29.94S
6HR MIN TEMP:  67; 6HR MAX TEMP:  77;


$$

GAZ044-118-TXZ119-213-NCZ071-DCZ001-MDZ014-506-PAZ021-071-NJZ106-
NYZ176-178-MAZ106-OHZ011-021-055-MIZ076-KYZ091-ILZ014-INZ047-
MNZ060-ONZ431-190700-

...Gateway Observations for Savannah International...

CITY           SKY/WX    TMP DP  RH WIND       PRES   REMARKS
Savannah Arpt  FAIR      67  40  37 SW10      29.96R
6HR MIN TEMP:  67; 6HR MAX TEMP:  81;

Atlanta        FAIR      67  55  65 SW9       29.94S
6HR MIN TEMP:  67; 6HR MAX TEMP:  77;

Charlotte      FAIR      72  46  39 SW16G23   29.76F
6HR MIN TEMP:  72; 6HR MAX TEMP:  77;

Dallas DFW     CLEAR     54  38  54 N12       30.19R
6HR MIN TEMP:  54; 6HR MAX TEMP:  74;

Houston Bush   MOCLDY    70  61  73 N6        30.10R
6HR MIN TEMP:  69; 6HR MAX TEMP:  77;

Wash National  FAIR      50  41  71 NE5       29.64F
6HR MIN TEMP:  50; 6HR MAX TEMP:  58;

Wash Dulles    FAIR      46  41  82 NE5       29.64F
6HR MIN TEMP:  45; 6HR MAX TEMP:  58;

Baltimore      FAIR      48  43  82 E5        29.63F
6HR MIN TEMP:  48; 6HR MAX TEMP:  54;

Philadelphia   CLOUDY    49  38  65 E8        29.70F
6HR MIN TEMP:  48; 6HR MAX TEMP:  54;

Newark         LGT RAIN  47  34  60 NE7       29.74F
6HR MIN TEMP:  47; 6HR MAX TEMP:  52; 6HR PCP: TRACE;

Laguardia      CLOUDY    47  32  56 NE9       29.74F
6HR MIN TEMP:  47; 6HR MAX TEMP:  53; 6HR PCP: TRACE;

J F K          LGT RAIN  47  39  74 E5        29.76R
6HR MIN TEMP:  45; 6HR MAX TEMP:  49; 6HR PCP: TRACE;

Boston         PTCLDY    43  29  57 W9        29.76S
6HR MIN TEMP:  43; 6HR MAX TEMP:  48;

Pittsburg      LGT RAIN  42  40  92 N6        29.72S
6HR MIN TEMP:  42; 6HR MAX TEMP:  53; 6HR PCP:  0.23;

Akron          CLOUDY    36  30  79 N7        29.77R WCI  30
6HR MIN TEMP:  36; 6HR MAX TEMP:  48; 6HR PCP:  0.02;

Cleveland      CLOUDY    36  32  85 NE13      29.81F WCI  27
6HR MIN TEMP:  36; 6HR MAX TEMP:  37; 6HR PCP:  0.01;

Cincinnati     CLOUDY    44  32  62 W21G31    29.89R
6HR MIN TEMP:  44; 6HR MAX TEMP:  64; 6HR PCP:  0.03;

Columbus       CLOUDY    41  41 100 NW6       29.79S
Detroit        CLOUDY    35  25  66 N13       29.87S WCI  26
6HR MIN TEMP:  35; 6HR MAX TEMP:  38; 6HR PCP: TRACE;

Chicago O`Hare LGT SNOW  32  32 100 N10       29.98R FOG     WCI  24
6HR MIN TEMP:  32; 6HR MAX TEMP:  33;

Minneapolis    FAIR      34  16  47 N5        30.24R WCI  30
6HR MIN TEMP:  32; 6HR MAX TEMP:  40;

Indianapolis   CLOUDY    37  30  75 W14G23    29.93R WCI  28
6HR MIN TEMP:  37; 6HR MAX TEMP:  51;

Toronto Canada MOCLDY    34  25  69 N10       29.76R WCI  26

$$




USA.gov is the U.S. government's official web portal to all federal, state and local government web resources and services.